Location: Carri�res
(48.9069°N, 2.1792°E)
Time: 13:47:41
(UTC+00:00)

Okean O Rocket - Pass Details

Date: 17 January 2021
Orbit: 622 x 645 km, 98.2° (Epoch: 25 February)

Event Time Altitude Azimuth Distance (km) Brightness Sun altitude
Rises 17:05:43 0° 157° (SSE) 2,945 5.1 -6.7°
Reaches altitude 10° 17:07:55 10° 155° (SSE) 2,039 4.2 -7.0°
Maximum altitude 17:12:21 70° 73° (ENE) 689 1.6 -7.7°
Drops below altitude 10° 17:16:47 10° 350° (N) 2,046 4.1 -8.4°
Sets 17:19:00 0° 348° (NNW) 2,956 4.9 -8.7°
